Location: Keppel Henge
(44.7900°N, 80.9447°W)
Time: 01:08:01
(UTC-04:00)

ISS - Visible Passes

Search period start: 20 July 2018 00:00
Search period end: 30 July 2018 00:00
Orbit: 402 x 408 km, 51.6° (Epoch: 20 July)

Date Brightness Start Highest point End Pass type
(mag) Time Alt. Az. Time Alt. Az. Time Alt. Az.
20 Jul -1.7 00:49:56 10° WNW 00:52:49 28° NNW 00:55:44 10° NE visible
20 Jul -1.5 02:27:08 10° NW 02:29:59 26° N 02:32:49 10° ENE visible
20 Jul -3.6 04:03:33 10° WNW 04:06:51 72° NNE 04:10:09 10° ESE visible
20 Jul -3.7 22:20:46 10° SW 22:23:57 51° SE 22:27:10 10° ENE visible
20 Jul -2.1 23:57:31 10° W 00:00:34 34° NNW 00:03:37 10° NE visible
21 Jul -1.4 01:34:55 10° NW 01:37:40 24° N 01:40:26 10° ENE visible
21 Jul -2.8 03:11:30 10° NW 03:14:42 46° NNE 03:17:53 10° E visible
21 Jul -3.0 04:48:09 10° WNW 04:51:06 30° SW 04:54:01 10° SSE visible
21 Jul -2.8 23:05:09 10° W 23:08:20 48° NNW 23:11:33 10° NE visible
22 Jul -1.4 00:42:36 10° WNW 00:45:21 24° N 00:48:07 10° NE visible
22 Jul -2.1 02:19:25 10° NW 02:22:28 34° NNE 02:25:31 10° E visible
22 Jul -3.8 03:55:51 10° WNW 03:59:05 54° SW 04:02:18 10° SE visible
22 Jul -3.6 22:12:54 10° WSW 22:16:10 75° NNW 22:19:27 10° ENE visible
22 Jul -1.5 23:50:11 10° WNW 23:53:02 26° N 23:55:53 10° NE visible
23 Jul -1.7 01:27:17 10° NW 01:30:11 27° N 01:30:53 25° NE visible
23 Jul -1.9 22:57:44 10° W 23:00:43 31° NNW 23:03:43 10° NE visible
24 Jul -1.5 00:35:05 10° NW 00:37:51 24° N 00:39:30 17° NE visible
24 Jul -1.1 02:11:34 10° NW 02:12:06 14° NW 02:12:06 14° NW visible
24 Jul -2.4 22:05:18 10° W 22:08:27 41° NNW 22:11:35 10° NE visible
24 Jul -1.4 23:42:45 10° WNW 23:45:29 24° N 23:48:14 10° NE visible
25 Jul -1.6 01:19:28 10° NW 01:21:11 25° NNW 01:21:11 25° NNW visible
25 Jul -1.5 22:50:20 10° WNW 22:53:07 25° N 22:55:56 10° NE visible
26 Jul -2.0 00:27:19 10° NW 00:30:16 29° NNE 00:30:27 29° NNE visible
26 Jul -1.8 21:57:50 10° WNW 22:00:46 29° NNW 22:03:42 10° NE visible
26 Jul -1.6 23:35:06 10° NW 23:37:54 25° N 23:39:46 16° NE visible
27 Jul -1.1 01:11:33 10° NW 01:12:23 17° NW 01:12:23 17° NW visible
27 Jul -1.5 22:42:47 10° NW 22:45:31 24° N 22:48:15 10° ENE visible
28 Jul -2.2 00:19:24 10° NW 00:21:46 35° NNW 00:21:46 35° NNW visible
28 Jul -1.6 21:50:21 10° WNW 21:53:06 24° N 21:55:52 10° NE visible
28 Jul -2.2 23:27:14 10° NW 23:30:14 31° NNE 23:31:10 26° NE visible
29 Jul -0.8 01:03:38 10° WNW 01:03:48 11° WNW 01:03:48 11° WNW visible
29 Jul -1.8 22:35:01 10° NW 22:37:50 26° N 22:40:36 11° ENE visible
